Baghdad, Iraq

9:04 AM AST on September 05, 2015 (GMT +0300)
Baghdad International Air | | Change Station
CLOSE
Current Station
Airport
Location: Baghdad International Air,
Elevation: 115 ft
Nearby Weather Stations

Elev 115 ft 33.26 °N, 44.23 °E | Updated 4 minutes ago

Smoke
Smoke
97 °F
Feels Like 97 °F
N
9
Wind Variable Wind from ESE

Today
High -- | Low -- °F
--% Chance of Precip.
Yesterday
High -- | Low -- °F
Precip. -- in
5:39 AM 6:23 PM
Waning Gibbous, 52% visible
Pressure 29.77 in
Visibility -9999.0 miles
Clouds
Dew Point 48 °F
Humidity 19%
Rainfall 0.00 in
Snow Depth Not available.
UV Not available.
Pollen Not available.
Air Quality Not available.
Flu Activity Not available.
METAR ORBI 050600Z 11008KT 4700 FU NSC 36/09 Q1008 NOSIG
Pressure 29.77 in
Visibility -9999.0 miles
Clouds
Dew Point 48 °F
Humidity 19%
Rainfall 0.00 in
Snow Depth Not available.
UV Not available.
Pollen Not available.
Air Quality Not available.
Flu Activity Not available.
METAR ORBI 050600Z 11008KT 4700 FU NSC 36/09 Q1008 NOSIG

10-Day Weather Forecast

×

Almanac

Astronomy

Sep. 05, 2015 Rise Set
Actual Time
Civil Twilight
Nautical Twilight
Astronomical Twilight
Moon
Length of Visible Light
Length of Day
Tomorrow will be .
, % of the Moon is Illuminated

Today's Extremes

Country Highs Country Lows

Community

WunderPhotos

Upload Photos

1,852,431 photos uploaded!

WunderBlogs® & News

Nearby

Air Quality

  Air Quality AQ Index Pollutant
Not available.

Snow Depth

Station Depth Elevation

Earthquake Activity

City Distance Mag. Time & Date
Minimum magnitude displayed is 2.5.

Coastal Water Temperatures

Place Temperature

Stations

Nearby Weather Stations

Station Location Temp. Windchill Dew Point Humidity Wind Precip. Elev Updated Type